Back to catalog

CZ-6A DEB

AliveSSO
NORAD 54563·DEBRIS·🇨🇳 China

Launched Nov 11, 2022 from Taiyuan Satellite Launch Center

Loading…

Next Passes (next 24 hours)

TLE

FreshSource: Space-Track

Epoch: Sep 14, 2026, 11:16 UTC

1 54563U 22151LP  26257.46949355  .00000653  00000-0  35726-3 0  9991
2 54563  98.8324 263.5720 0037065  65.1753 295.3268 14.15035376197762

Track CZ-6A DEB in real time with AllMySat

Download on the App Store